Volver al catálogo

STARLINK-37042

ActivoComunicacionesVLEO
NORAD 68266·PAYLOAD·🇺🇸 United States

Lanzado Mar 19, 2026 desde Vandenberg Space Force Base

Loading…

Próximos Pases (próximas 24 horas)

TLE

ActualizadoSource: CelesTrak SupGP

Época: Sep 15, 2026, 02:51 UTC

1 68266C 26055E   26258.11923611 -.00006368  00000+0 -18816-3 0  2582
2 68266  53.1571 155.2152 0001240  84.5762 226.2715 15.34391492    19

Sigue STARLINK-37042 en tiempo real con AllMySat

Download on the App Store